Weather History for KMIC - October, 2013

Change the Weather History Date:

Friday, October 4, 2013

  Actual Average Record
Temperature  
Mean Temperature 57 °F -  
Max Temperature 59 °F 62 °F 84 °F (2011)
Min Temperature 55 °F 39 °F 30 °F (2004)
Degree Days  
Heating Degree Days 8    
Growing Degree Days 7 (Base 50)    
Moisture  
Dew Point 53 °F    
Average Humidity 87    
Maximum Humidity 94    
Minimum Humidity 78    
Precipitation  
Precipitation 0.23 in - - ()
Sea Level Pressure  
Sea Level Pressure 29.93 in    
Wind  
Wind Speed 10 mph (ENE)    
Max Wind Speed 14 mph    
Max Gust Speed 23 mph    
Visibility 8 miles    
Events Rain , Thunderstorm    
Averages and records for this station are not official NWS values.
T = Trace of Precipitation, MM = Missing Value Source: NWS Daily Summary

Daily Weather History Graph

Daily Weather History Graph

Search for Another Location

Airport or City:

Trip Planner

Search our weather history database for the weather conditions in past years. The results will help you decide how hot, cold, wet, or windy it might be!

Date:

Astronomy

Oct. 04, 2013 Rise Set
Actual Time 7:15 AM CDT 6:47 PM CDT
Civil Twilight 6:46 AM CDT 7:17 PM CDT
Nautical Twilight 6:12 AM CDT 7:50 PM CDT
Astronomical Twilight 5:37 AM CDT 8:25 PM CDT
Moon 6:52 AM CDT (10/4) 6:28 PM CDT (10/4)
Length of Visible Light 12h 30m
Length of Day
11h 32m
Waning Crescent, 0% of the Moon is Illuminated
Oct 4
Waning Crescent
Oct 4
New
Oct 11
First Quarter
Oct 18
Full
Oct 26
Last Quarter

Hourly Weather History & Observations

Time (CDT) Temp. Dew Point Humidity Pressure Visibility Wind Dir Wind Speed Gust Speed Precip Events Conditions
12:53 AM 55.0 °F 52.0 °F 89% 29.94 in 10.0 mi NNE 8.1 mph - N/A   Overcast
1:53 AM 55.0 °F 52.0 °F 89% 29.94 in 10.0 mi NNE 8.1 mph - N/A   Overcast
2:53 AM 55.0 °F 52.0 °F 89% 29.95 in 6.0 mi NNE 9.2 mph - N/A   Overcast
3:53 AM 55.0 °F 52.0 °F 89% 29.95 in 8.0 mi NNE 9.2 mph - N/A   Overcast
4:53 AM 55.0 °F 53.1 °F 93% 29.95 in 10.0 mi NE 6.9 mph - N/A   Overcast
5:53 AM 55.9 °F 53.1 °F 90% 29.96 in 10.0 mi NNE 9.2 mph - N/A   Overcast
6:53 AM 55.9 °F 52.0 °F 87% 29.97 in 10.0 mi NE 10.4 mph - N/A   Overcast
7:53 AM 55.9 °F 52.0 °F 87% 29.98 in 10.0 mi NE 6.9 mph - N/A   Overcast
8:53 AM 55.9 °F 52.0 °F 87% 29.98 in 10.0 mi NE 10.4 mph - N/A   Overcast
9:53 AM 55.9 °F 51.1 °F 84% 29.96 in 10.0 mi NE 10.4 mph 19.6 mph N/A   Overcast
10:07 AM 55.4 °F 51.8 °F 88% 29.96 in 10.0 mi ENE 10.4 mph 17.3 mph N/A   Overcast
10:53 AM 57.0 °F 52.0 °F 83% 29.98 in 10.0 mi ENE 10.4 mph 19.6 mph N/A   Overcast
11:53 AM 57.0 °F 52.0 °F 83% 29.98 in 10.0 mi ENE 10.4 mph - N/A   Overcast
12:53 PM 57.9 °F 52.0 °F 81% 29.99 in 10.0 mi ENE 12.7 mph 19.6 mph N/A   Overcast
1:53 PM 57.9 °F 52.0 °F 81% 29.96 in 10.0 mi East 8.1 mph - N/A   Overcast
2:53 PM 59.0 °F 52.0 °F 78% 29.93 in 10.0 mi ENE 11.5 mph 19.6 mph N/A   Overcast
3:53 PM 59.0 °F 53.1 °F 81% 29.94 in 10.0 mi ENE 10.4 mph 19.6 mph N/A   Overcast
4:38 PM 59.0 °F 53.6 °F 82% 29.93 in 10.0 mi East 11.5 mph 19.6 mph N/A   Overcast
4:53 PM 59.0 °F 52.0 °F 78% 29.94 in 10.0 mi East 10.4 mph 23.0 mph N/A   Overcast
5:53 PM 59.0 °F 53.1 °F 81% 29.93 in 10.0 mi ENE 9.2 mph 19.6 mph N/A   Overcast
6:53 PM 57.9 °F 53.1 °F 84% 29.91 in 10.0 mi ENE 11.5 mph - N/A   Overcast
7:44 PM 57.2 °F 53.6 °F 88% 29.92 in 10.0 mi ENE 10.4 mph 18.4 mph N/A   Overcast
7:53 PM 57.9 °F 54.0 °F 87% 29.93 in 10.0 mi East 9.2 mph - N/A   Overcast
8:53 PM 57.9 °F 54.0 °F 87% 29.91 in 5.0 mi ENE 11.5 mph 18.4 mph 0.00 in Rain Light Rain
9:21 PM 57.2 °F 53.6 °F 88% 29.87 in 8.0 mi ENE 13.8 mph 19.6 mph 0.00 in Rain , Thunderstorm Light Rain
9:38 PM 57.2 °F 53.6 °F 88% 29.86 in 2.5 mi ENE 12.7 mph - 0.08 in Rain Heavy Rain
9:51 PM 57.2 °F 53.6 °F 88% 29.86 in 5.0 mi ENE 9.2 mph 21.9 mph 0.09 in Rain Light Rain
9:53 PM 57.0 °F 54.0 °F 89% 29.87 in 6.0 mi East 10.4 mph 21.9 mph 0.09 in Rain Light Rain
10:53 PM 57.0 °F 55.0 °F 93% 29.85 in 7.0 mi East 12.7 mph 20.7 mph 0.01 in Rain Light Rain
11:33 PM 57.2 °F 55.4 °F 94% 29.85 in 6.0 mi East 9.2 mph - 0.05 in Rain , Thunderstorm Light Rain
11:53 PM 57.9 °F 55.0 °F 90% 29.89 in 3.0 mi SE 9.2 mph - 0.13 in Rain , Thunderstorm Heavy Thunderstorms and Rain
11:58 PM 57.2 °F 55.4 °F 94% 29.89 in 2.5 mi ESE 10.4 mph - 0.03 in Rain Heavy Rain